Location: Newark
(39.0622°N, 106.5590°E)
Time: 01:41:37
(UTC+00:00)

Vanguard 2 Rocket - Pass Details

Date: 27 January 2020
Orbit: 553 x 3327 km, 32.9° (Epoch: 25 February)

Event Time Altitude Azimuth Distance (km) Brightness Sun altitude
Rises 03:44:26 0° 265° (W) 4,190 10.1 29.2°
Reaches altitude 10° 03:47:51 10° 248° (WSW) 3,616 10.1 29.5°
Maximum altitude 03:54:24 20° 205° (SSW) 3,573 10.8 29.9°
Drops below altitude 10° 04:03:27 10° 166° (SSE) 5,192 12.4 30.5°
Sets 04:10:00 0° 152° (SSE) 6,689 12.4 30.8°
